User: anonymous   Login
Location: Pedholt
(56.0260°N, 10.2097°E)
Time: 19:32:33
(UTC+00:00)
Language:

Okean 3 - Orbit

View from above orbital plane
View from above orbital plane
View from above satellite
View from above satellite

Ground track
Ground track

The orbit data is extracted from the following two-line orbital elements,

1 21397U 91039A   20263.54865115 +.00000171 +00000-0 +13907-4 0  9995
2 21397 082.5189 087.2548 0016977 210.6449 149.3781 14.92957286566303
Epoch (UTC): 19 September 2020 13:10:03
Eccentricity: 0.0016977
inclination: 82.5189°
perigee height: 577 km
apogee height: 600 km
right ascension of ascending node: 87.2548°
argument of perigee: 210.6449°
revolutions per day: 14.92957286
mean anomaly at epoch: 149.3781°
orbit number at epoch: 56630

The dashed part of the orbit path shows where the satellite is in the earth's shadow,  

DLR